GFSFLT2_prec_precacc_324.txt.gz
Total_Precipitation_Accumulation
6.15 3.91 3.41 3.65 2.55 2.45 3.42 3.42 2.90 1.95 1.53 1.33 1.52 1.22 1.09 1.00 0.80 0.78 0.84 0.89 0.94 0.94 0.98 0.99 0.85 0.78 0.66 0.56 0.58 0.89 1.31 1.46
7.16 5.24 3.29 1.83 2.56 2.48 2.47 3.32 3.85 2.53 2.01 1.86 1.55 1.48 1.33 0.98 0.78 0.81 1.05 1.01 0.78 0.71 0.73 0.79 0.76 0.67 0.66 0.64 0.67 1.09 1.43 1.84
6.73 6.46 4.08 2.83 2.64 2.64 2.23 2.07 3.02 3.85 2.60 2.19 1.90 1.20 1.29 1.05 1.08 1.13 1.19 1.10 1.08 1.05 0.93 0.91 0.85 0.78 0.85 1.11 1.01 0.74 1.12 1.64
3.03 3.35 3.10 2.47 3.23 3.29 2.23 2.08 1.62 2.88 3.11 2.43 1.85 1.21 1.22 1.20 1.06 1.18 1.30 1.17 1.25 1.22 1.24 1.30 1.32 1.08 1.05 1.06 0.94 1.15 1.37 1.79
1.31 1.59 1.54 1.63 2.15 1.83 1.88 1.86 1.72 1.88 2.85 2.29 1.64 1.24 1.16 1.49 1.02 1.13 1.55 1.64 1.30 1.11 0.97 1.08 1.22 1.49 1.29 1.14 0.98 0.98 1.09 1.82
1.09 0.93 1.16 1.36 1.62 1.59 1.28 1.43 1.67 1.68 2.40 2.25 1.60 1.31 1.01 1.22 1.02 1.09 1.78 1.81 1.43 1.11 0.82 0.92 1.17 1.36 1.15 1.16 1.07 1.10 1.12 1.56
1.04 0.89 0.95 1.04 0.96 1.02 0.95 0.92 1.27 1.62 1.82 2.16 1.99 1.38 0.92 1.05 1.11 1.32 1.67 1.79 2.01 1.51 1.15 1.16 1.22 1.39 1.23 0.94 0.85 1.23 1.40 1.45
1.04 1.31 0.99 1.13 0.89 0.86 0.87 0.82 1.11 1.52 1.73 2.02 2.49 1.95 1.67 1.53 1.63 1.85 1.99 1.95 1.89 1.88 1.45 1.41 1.55 1.45 1.47 1.00 0.70 1.05 1.57 1.74
1.14 1.65 1.27 1.21 0.85 0.95 0.97 1.01 0.97 1.05 1.29 1.92 2.41 2.59 2.41 2.18 2.09 2.22 2.38 2.40 2.04 1.84 1.67 1.61 1.53 1.64 1.52 1.35 1.02 0.94 1.13 2.06
1.32 1.42 1.03 1.22 1.05 1.22 1.60 1.00 0.72 0.81 0.98 1.30 1.77 2.11 2.10 1.91 2.05 2.10 2.97 3.09 2.45 2.32 2.07 1.94 1.75 1.57 1.58 1.44 1.07 1.07 0.96 1.63
0.89 0.98 1.03 1.51 1.91 2.01 1.59 1.03 0.73 0.91 0.83 0.89 1.18 1.85 1.88 1.77 1.91 2.00 2.04 2.59 2.47 2.36 2.14 1.93 1.98 1.84 1.58 1.71 1.56 1.10 1.07 1.25
0.76 0.84 1.34 2.10 2.03 1.40 1.26 1.24 1.17 1.18 0.85 0.88 1.10 1.75 1.59 2.08 2.37 2.20 2.72 2.38 2.20 2.27 2.12 1.89 1.59 1.62 1.75 1.69 1.64 1.42 1.30 1.34
0.70 0.86 0.81 0.98 1.07 1.18 1.20 1.11 1.20 1.05 0.80 0.87 1.10 1.66 1.81 1.71 2.14 2.28 2.50 2.67 2.60 2.07 2.15 2.49 1.88 1.49 2.14 2.63 1.95 1.87 1.71 1.66
0.41 0.34 0.23 0.33 0.54 0.68 0.75 0.75 0.70 0.89 1.08 0.99 1.44 1.63 1.86 1.79 2.07 2.47 2.22 2.73 2.92 2.73 2.12 2.17 2.24 2.15 2.20 2.29 2.43 2.53 2.09 2.33
0.09 0.16 0.14 0.26 0.39 0.80 1.41 1.81 1.88 2.07 1.56 1.41 1.64 1.57 1.81 1.93 2.13 2.28 2.66 2.89 3.09 3.37 2.77 2.22 2.35 2.26 2.18 2.91 2.67 2.41 2.03 2.08
0.13 0.13 0.22 0.33 0.62 0.88 1.23 1.19 1.19 1.12 1.39 1.61 1.81 2.09 2.11 2.22 2.32 3.13 2.94 3.44 3.44 3.16 3.67 2.90 2.43 2.23 2.45 2.55 2.64 2.34 2.22 2.03
0.10 0.15 0.34 0.50 0.79 0.74 1.16 1.57 1.56 1.36 1.54 2.04 2.69 2.24 2.38 2.84 2.79 2.74 3.15 3.54 4.08 3.98 3.86 4.26 3.36 2.47 2.00 2.40 2.46 2.37 2.32 2.48
0.12 0.18 0.23 0.50 0.71 1.30 1.93 1.90 1.86 1.97 1.83 1.69 2.16 2.92 2.55 2.85 3.13 2.67 2.54 2.67 3.39 3.76 4.55 4.68 4.75 3.91 2.82 2.27 2.50 2.85 2.84 2.70
0.21 0.16 0.21 0.29 0.55 1.08 1.53 2.22 2.75 2.42 2.02 2.07 2.11 3.00 3.55 3.00 2.77 3.22 3.15 2.84 2.91 3.52 3.73 4.24 4.76 5.08 4.62 3.58 3.11 2.69 2.62 2.70
0.47 0.31 0.40 0.43 0.63 1.06 1.41 1.87 2.32 3.25 3.43 3.31 3.23 2.92 3.64 4.86 5.04 3.51 3.14 3.75 3.65 3.51 3.82 3.86 4.00 4.46 4.71 4.86 4.18 3.50 2.82 3.20

GFSFLT2_prec_precacc_330.txt.gz
Total_Precipitation_Accumulation
6.15 3.91 3.41 3.65 2.55 2.45 3.42 3.42 2.90 1.95 1.53 1.33 1.52 1.22 1.09 1.00 0.80 0.78 0.84 0.89 0.94 0.94 0.98 0.99 0.85 0.78 0.66 0.56 0.58 0.89 1.31 1.46
7.16 5.24 3.29 1.83 2.56 2.48 2.47 3.32 3.85 2.53 2.01 1.86 1.55 1.48 1.33 0.98 0.78 0.81 1.05 1.01 0.78 0.71 0.73 0.79 0.76 0.67 0.66 0.64 0.67 1.09 1.43 1.84
6.73 6.46 4.08 2.83 2.64 2.64 2.23 2.07 3.02 3.85 2.60 2.19 1.90 1.20 1.29 1.05 1.08 1.13 1.19 1.10 1.08 1.05 0.93 0.91 0.85 0.78 0.85 1.11 1.01 0.74 1.12 1.64
3.03 3.35 3.10 2.47 3.23 3.29 2.23 2.08 1.62 2.88 3.11 2.43 1.85 1.21 1.22 1.20 1.06 1.18 1.30 1.17 1.25 1.22 1.24 1.30 1.32 1.08 1.05 1.06 0.94 1.15 1.37 1.79
1.31 1.59 1.54 1.63 2.15 1.83 1.88 1.86 1.72 1.88 2.85 2.29 1.64 1.24 1.16 1.49 1.02 1.13 1.55 1.64 1.30 1.11 0.97 1.08 1.22 1.49 1.29 1.14 0.98 0.98 1.09 1.82
1.09 0.93 1.16 1.36 1.62 1.59 1.28 1.43 1.67 1.68 2.40 2.25 1.60 1.31 1.01 1.22 1.02 1.09 1.78 1.81 1.43 1.11 0.82 0.92 1.17 1.36 1.15 1.16 1.07 1.10 1.12 1.56
1.04 0.89 0.95 1.04 0.96 1.02 0.95 0.92 1.27 1.62 1.82 2.16 1.99 1.38 0.92 1.05 1.11 1.32 1.67 1.79 2.01 1.51 1.15 1.16 1.22 1.39 1.23 0.94 0.85 1.23 1.40 1.45
1.04 1.31 0.99 1.13 0.89 0.86 0.87 0.82 1.11 1.52 1.73 2.02 2.49 1.95 1.67 1.53 1.63 1.85 1.99 1.95 1.89 1.88 1.45 1.41 1.55 1.45 1.47 1.00 0.70 1.05 1.57 1.74
1.14 1.65 1.27 1.21 0.85 0.95 0.97 1.01 0.97 1.05 1.29 1.92 2.41 2.59 2.41 2.18 2.09 2.22 2.38 2.40 2.04 1.84 1.67 1.61 1.53 1.64 1.52 1.35 1.02 0.94 1.13 2.06
1.32 1.42 1.03 1.22 1.05 1.22 1.60 1.00 0.72 0.81 0.98 1.30 1.77 2.11 2.10 1.91 2.05 2.10 2.97 3.09 2.45 2.32 2.07 1.94 1.75 1.57 1.58 1.44 1.07 1.07 0.96 1.63
0.89 0.98 1.03 1.51 1.91 2.01 1.59 1.03 0.73 0.91 0.83 0.89 1.18 1.85 1.88 1.77 1.91 2.00 2.04 2.59 2.47 2.36 2.14 1.93 1.98 1.84 1.58 1.71 1.56 1.10 1.07 1.25
0.76 0.84 1.34 2.10 2.03 1.40 1.26 1.24 1.17 1.18 0.85 0.88 1.10 1.75 1.59 2.08 2.37 2.20 2.72 2.38 2.20 2.27 2.12 1.89 1.59 1.62 1.75 1.69 1.64 1.42 1.30 1.34
0.70 0.86 0.81 0.98 1.07 1.18 1.20 1.11 1.20 1.05 0.80 0.87 1.10 1.66 1.81 1.71 2.14 2.28 2.50 2.67 2.60 2.07 2.15 2.49 1.88 1.49 2.14 2.63 1.95 1.87 1.71 1.66
0.41 0.34 0.23 0.33 0.54 0.68 0.75 0.75 0.70 0.89 1.08 0.99 1.44 1.63 1.86 1.79 2.07 2.47 2.22 2.73 2.92 2.73 2.12 2.17 2.24 2.15 2.20 2.29 2.43 2.53 2.09 2.33
0.09 0.16 0.14 0.26 0.39 0.80 1.41 1.81 1.88 2.07 1.56 1.41 1.64 1.57 1.81 1.93 2.13 2.28 2.66 2.89 3.09 3.37 2.77 2.22 2.35 2.26 2.18 2.91 2.67 2.41 2.03 2.08
0.13 0.13 0.22 0.33 0.62 0.88 1.23 1.19 1.19 1.12 1.39 1.61 1.81 2.09 2.11 2.22 2.32 3.13 2.94 3.44 3.44 3.16 3.67 2.90 2.43 2.23 2.45 2.55 2.64 2.34 2.22 2.03
0.10 0.15 0.34 0.50 0.79 0.74 1.16 1.57 1.56 1.36 1.54 2.04 2.69 2.24 2.38 2.84 2.79 2.74 3.15 3.54 4.08 3.98 3.86 4.26 3.36 2.47 2.00 2.40 2.46 2.37 2.32 2.48
0.12 0.18 0.23 0.50 0.71 1.30 1.93 1.90 1.86 1.97 1.83 1.69 2.16 2.92 2.55 2.85 3.13 2.67 2.54 2.67 3.39 3.76 4.55 4.68 4.75 3.91 2.82 2.27 2.50 2.85 2.84 2.70
0.21 0.16 0.21 0.29 0.55 1.08 1.53 2.22 2.75 2.42 2.02 2.07 2.11 3.00 3.55 3.00 2.77 3.22 3.15 2.84 2.91 3.52 3.74 4.26 4.77 5.08 4.63 3.59 3.11 2.69 2.62 2.70
0.47 0.31 0.40 0.43 0.63 1.06 1.41 1.87 2.32 3.25 3.43 3.31 3.23 2.92 3.64 4.86 5.04 3.51 3.14 3.75 3.65 3.54 3.88 3.94 4.09 4.54 4.75 4.88 4.20 3.51 2.82 3.20

GFSFLT2_prec_precacc_333.txt.gz
Total_Precipitation_Accumulation
6.15 3.91 3.41 3.65 2.55 2.45 3.42 3.42 2.90 1.95 1.53 1.33 1.52 1.22 1.09 1.00 0.80 0.78 0.84 0.89 0.94 0.94 0.98 0.99 0.85 0.78 0.66 0.56 0.58 0.89 1.31 1.46
7.16 5.24 3.29 1.83 2.56 2.48 2.47 3.32 3.85 2.53 2.01 1.86 1.55 1.48 1.33 0.98 0.78 0.81 1.05 1.01 0.78 0.71 0.73 0.79 0.76 0.67 0.66 0.64 0.67 1.09 1.43 1.84
6.73 6.46 4.08 2.83 2.64 2.64 2.23 2.07 3.02 3.85 2.60 2.19 1.90 1.20 1.29 1.05 1.08 1.13 1.19 1.10 1.08 1.05 0.93 0.91 0.85 0.78 0.85 1.11 1.01 0.74 1.12 1.64
3.03 3.35 3.10 2.47 3.23 3.29 2.23 2.08 1.62 2.88 3.11 2.43 1.85 1.21 1.22 1.20 1.06 1.18 1.30 1.17 1.25 1.22 1.24 1.30 1.32 1.08 1.05 1.06 0.94 1.15 1.37 1.79
1.31 1.59 1.54 1.63 2.15 1.83 1.88 1.86 1.72 1.88 2.85 2.29 1.64 1.24 1.16 1.49 1.02 1.13 1.55 1.64 1.30 1.11 0.97 1.08 1.22 1.49 1.29 1.14 0.98 0.98 1.09 1.82
1.09 0.93 1.16 1.36 1.62 1.59 1.28 1.43 1.67 1.68 2.40 2.25 1.60 1.31 1.01 1.22 1.02 1.09 1.78 1.81 1.43 1.11 0.82 0.92 1.17 1.36 1.15 1.16 1.07 1.10 1.12 1.56
1.04 0.89 0.95 1.04 0.96 1.02 0.95 0.92 1.27 1.62 1.82 2.16 1.99 1.38 0.92 1.05 1.11 1.32 1.67 1.79 2.01 1.51 1.15 1.16 1.22 1.39 1.23 0.94 0.85 1.23 1.40 1.45
1.04 1.31 0.99 1.13 0.89 0.86 0.87 0.82 1.11 1.52 1.73 2.02 2.49 1.95 1.67 1.53 1.63 1.85 1.99 1.95 1.89 1.88 1.45 1.41 1.55 1.45 1.47 1.00 0.70 1.05 1.57 1.74
1.14 1.65 1.27 1.21 0.85 0.95 0.97 1.01 0.97 1.05 1.29 1.92 2.41 2.59 2.41 2.18 2.09 2.22 2.38 2.40 2.04 1.84 1.67 1.61 1.53 1.64 1.52 1.35 1.02 0.94 1.13 2.06
1.32 1.42 1.03 1.22 1.05 1.22 1.60 1.00 0.72 0.81 0.98 1.30 1.77 2.11 2.10 1.91 2.05 2.10 2.97 3.09 2.45 2.32 2.07 1.94 1.75 1.57 1.58 1.44 1.07 1.07 0.96 1.63
0.89 0.98 1.03 1.51 1.91 2.01 1.59 1.03 0.73 0.91 0.83 0.89 1.18 1.85 1.88 1.77 1.91 2.00 2.04 2.59 2.47 2.36 2.14 1.93 1.98 1.84 1.58 1.71 1.56 1.10 1.07 1.25
0.76 0.84 1.34 2.10 2.03 1.40 1.26 1.24 1.17 1.18 0.85 0.88 1.10 1.75 1.59 2.08 2.37 2.20 2.72 2.38 2.20 2.27 2.12 1.89 1.59 1.62 1.75 1.69 1.64 1.42 1.30 1.34
0.70 0.86 0.81 0.98 1.07 1.18 1.20 1.11 1.20 1.05 0.80 0.87 1.10 1.66 1.81 1.71 2.14 2.28 2.50 2.67 2.60 2.07 2.15 2.49 1.88 1.49 2.14 2.63 1.95 1.87 1.71 1.66
0.41 0.34 0.23 0.33 0.54 0.68 0.75 0.75 0.70 0.89 1.08 0.99 1.44 1.63 1.86 1.79 2.07 2.47 2.22 2.73 2.92 2.73 2.12 2.17 2.24 2.15 2.20 2.29 2.43 2.53 2.09 2.33
0.09 0.16 0.14 0.26 0.39 0.80 1.41 1.81 1.88 2.07 1.56 1.41 1.64 1.57 1.81 1.93 2.13 2.28 2.66 2.89 3.09 3.37 2.77 2.22 2.35 2.26 2.18 2.91 2.67 2.41 2.03 2.08
0.13 0.13 0.22 0.33 0.62 0.88 1.23 1.19 1.19 1.12 1.39 1.61 1.81 2.09 2.11 2.22 2.32 3.13 2.94 3.44 3.44 3.16 3.67 2.90 2.43 2.23 2.45 2.55 2.64 2.34 2.22 2.03
0.10 0.15 0.34 0.50 0.79 0.74 1.16 1.57 1.56 1.36 1.54 2.04 2.69 2.24 2.38 2.84 2.79 2.74 3.15 3.54 4.08 3.98 3.86 4.26 3.36 2.47 2.00 2.40 2.46 2.37 2.32 2.48
0.12 0.18 0.23 0.50 0.71 1.30 1.93 1.90 1.86 1.97 1.83 1.69 2.16 2.92 2.55 2.85 3.13 2.67 2.54 2.67 3.39 3.76 4.55 4.68 4.75 3.91 2.82 2.27 2.50 2.85 2.84 2.70
0.21 0.16 0.21 0.29 0.55 1.08 1.53 2.22 2.75 2.42 2.02 2.07 2.11 3.00 3.55 3.00 2.77 3.22 3.15 2.84 2.91 3.52 3.74 4.26 4.77 5.08 4.63 3.59 3.11 2.69 2.62 2.70
0.47 0.31 0.40 0.43 0.63 1.06 1.41 1.87 2.32 3.25 3.43 3.31 3.23 2.92 3.64 4.86 5.04 3.51 3.14 3.75 3.65 3.54 3.89 3.94 4.09 4.54 4.75 4.88 4.20 3.51 2.82 3.20

GFSFLT2_prec_precacc_339.txt.gz
Total_Precipitation_Accumulation
6.15 3.91 3.41 3.65 2.55 2.45 3.42 3.42 2.90 1.95 1.53 1.33 1.52 1.22 1.09 1.00 0.80 0.78 0.84 0.89 0.94 0.94 0.98 0.99 0.85 0.78 0.66 0.56 0.58 0.89 1.31 1.46
7.16 5.24 3.29 1.83 2.56 2.48 2.47 3.32 3.85 2.53 2.01 1.86 1.55 1.48 1.33 0.98 0.78 0.81 1.05 1.01 0.78 0.71 0.73 0.79 0.76 0.67 0.66 0.64 0.67 1.09 1.43 1.84
6.73 6.46 4.08 2.83 2.64 2.64 2.23 2.07 3.02 3.85 2.60 2.19 1.90 1.20 1.29 1.05 1.08 1.13 1.19 1.10 1.08 1.05 0.93 0.91 0.85 0.78 0.85 1.11 1.01 0.74 1.12 1.64
3.03 3.35 3.10 2.47 3.23 3.29 2.23 2.08 1.62 2.88 3.11 2.43 1.85 1.21 1.22 1.20 1.06 1.18 1.30 1.17 1.25 1.22 1.24 1.30 1.32 1.08 1.05 1.06 0.94 1.15 1.37 1.79
1.31 1.59 1.54 1.63 2.15 1.83 1.88 1.86 1.72 1.88 2.85 2.29 1.64 1.24 1.16 1.49 1.02 1.13 1.55 1.64 1.30 1.11 0.97 1.08 1.22 1.49 1.29 1.14 0.98 0.98 1.09 1.82
1.09 0.93 1.16 1.36 1.62 1.59 1.28 1.43 1.67 1.68 2.40 2.25 1.60 1.31 1.01 1.22 1.02 1.09 1.78 1.81 1.43 1.11 0.82 0.92 1.17 1.36 1.15 1.16 1.07 1.10 1.12 1.56
1.04 0.89 0.95 1.04 0.96 1.02 0.95 0.92 1.27 1.62 1.82 2.16 1.99 1.38 0.92 1.05 1.11 1.32 1.67 1.79 2.01 1.51 1.15 1.16 1.22 1.39 1.23 0.94 0.85 1.23 1.40 1.45
1.04 1.31 0.99 1.13 0.89 0.86 0.87 0.82 1.11 1.52 1.73 2.02 2.49 1.95 1.67 1.53 1.63 1.85 1.99 1.95 1.89 1.88 1.45 1.41 1.55 1.45 1.47 1.00 0.70 1.05 1.57 1.74
1.14 1.65 1.27 1.21 0.85 0.95 0.97 1.01 0.97 1.05 1.29 1.92 2.41 2.59 2.41 2.18 2.09 2.22 2.38 2.40 2.04 1.84 1.67 1.61 1.53 1.64 1.52 1.35 1.02 0.94 1.13 2.06
1.32 1.42 1.03 1.22 1.05 1.22 1.60 1.00 0.72 0.81 0.98 1.30 1.77 2.11 2.10 1.91 2.05 2.10 2.97 3.09 2.45 2.32 2.07 1.94 1.75 1.57 1.58 1.44 1.07 1.07 0.96 1.63
0.89 0.98 1.03 1.51 1.91 2.01 1.59 1.03 0.73 0.91 0.83 0.89 1.18 1.85 1.88 1.77 1.91 2.00 2.04 2.59 2.47 2.36 2.14 1.93 1.98 1.84 1.58 1.71 1.56 1.10 1.07 1.25
0.76 0.84 1.34 2.10 2.03 1.40 1.26 1.24 1.17 1.18 0.85 0.88 1.10 1.75 1.59 2.08 2.37 2.20 2.72 2.38 2.20 2.27 2.12 1.89 1.59 1.62 1.75 1.69 1.64 1.42 1.30 1.34
0.71 0.86 0.81 0.98 1.07 1.18 1.20 1.11 1.20 1.05 0.80 0.87 1.10 1.66 1.81 1.71 2.14 2.28 2.50 2.67 2.60 2.07 2.15 2.49 1.88 1.49 2.14 2.63 1.95 1.87 1.71 1.66
0.41 0.34 0.23 0.33 0.54 0.68 0.75 0.75 0.70 0.89 1.08 0.99 1.44 1.63 1.86 1.79 2.07 2.47 2.22 2.73 2.92 2.73 2.12 2.17 2.24 2.15 2.20 2.29 2.43 2.53 2.09 2.33
0.09 0.16 0.14 0.26 0.39 0.80 1.41 1.81 1.88 2.07 1.56 1.41 1.64 1.57 1.81 1.93 2.13 2.28 2.66 2.89 3.09 3.37 2.77 2.22 2.35 2.26 2.18 2.91 2.67 2.41 2.03 2.08
0.13 0.13 0.22 0.33 0.62 0.88 1.23 1.19 1.19 1.12 1.39 1.61 1.81 2.09 2.11 2.22 2.32 3.13 2.94 3.44 3.44 3.16 3.67 2.90 2.43 2.23 2.45 2.55 2.64 2.34 2.22 2.03
0.10 0.15 0.34 0.50 0.79 0.74 1.16 1.57 1.56 1.36 1.54 2.04 2.69 2.24 2.38 2.84 2.79 2.74 3.15 3.54 4.08 3.98 3.86 4.26 3.36 2.47 2.00 2.40 2.46 2.37 2.32 2.48
0.12 0.18 0.23 0.50 0.71 1.30 1.93 1.90 1.86 1.97 1.83 1.69 2.16 2.92 2.55 2.85 3.13 2.67 2.54 2.67 3.39 3.76 4.55 4.68 4.75 3.91 2.82 2.27 2.50 2.85 2.85 2.70
0.21 0.16 0.21 0.29 0.55 1.08 1.53 2.22 2.75 2.42 2.02 2.07 2.11 3.00 3.55 3.00 2.77 3.22 3.15 2.84 2.91 3.52 3.74 4.26 4.77 5.08 4.63 3.59 3.11 2.69 2.62 2.70
0.47 0.31 0.40 0.43 0.63 1.06 1.41 1.87 2.32 3.25 3.43 3.31 3.23 2.92 3.64 4.86 5.04 3.51 3.14 3.75 3.65 3.54 3.89 3.95 4.10 4.55 4.76 4.89 4.21 3.52 2.82 3.21

GFSFLT2_prec_precacc_342.txt.gz
Total_Precipitation_Accumulation
6.15 3.91 3.41 3.65 2.55 2.45 3.42 3.42 2.90 1.95 1.53 1.33 1.52 1.22 1.09 1.00 0.80 0.78 0.84 0.89 0.94 0.94 0.98 0.99 0.85 0.78 0.66 0.56 0.58 0.89 1.31 1.46
7.16 5.24 3.29 1.83 2.56 2.48 2.47 3.32 3.85 2.53 2.01 1.86 1.55 1.48 1.33 0.98 0.78 0.81 1.05 1.01 0.78 0.71 0.73 0.79 0.76 0.67 0.66 0.64 0.67 1.09 1.43 1.84
6.73 6.46 4.08 2.83 2.64 2.64 2.23 2.07 3.02 3.85 2.60 2.19 1.90 1.20 1.29 1.05 1.08 1.13 1.19 1.10 1.08 1.05 0.93 0.91 0.85 0.78 0.85 1.11 1.01 0.74 1.12 1.64
3.03 3.35 3.10 2.47 3.23 3.29 2.23 2.08 1.62 2.88 3.11 2.43 1.85 1.21 1.22 1.20 1.06 1.18 1.30 1.17 1.25 1.22 1.24 1.30 1.32 1.08 1.05 1.06 0.94 1.15 1.37 1.79
1.31 1.59 1.54 1.63 2.15 1.83 1.88 1.86 1.72 1.88 2.85 2.29 1.64 1.24 1.16 1.49 1.02 1.13 1.55 1.64 1.30 1.11 0.97 1.08 1.22 1.49 1.29 1.14 0.98 0.98 1.09 1.82
1.09 0.93 1.16 1.36 1.62 1.59 1.28 1.43 1.67 1.68 2.40 2.25 1.60 1.31 1.01 1.22 1.02 1.09 1.78 1.81 1.43 1.11 0.82 0.92 1.17 1.36 1.15 1.16 1.07 1.10 1.12 1.56
1.04 0.89 0.95 1.04 0.96 1.02 0.95 0.92 1.27 1.62 1.82 2.16 1.99 1.38 0.92 1.05 1.11 1.32 1.67 1.79 2.01 1.51 1.15 1.16 1.22 1.39 1.23 0.94 0.85 1.23 1.40 1.45
1.04 1.31 0.99 1.13 0.89 0.86 0.87 0.82 1.11 1.52 1.73 2.02 2.49 1.95 1.67 1.53 1.63 1.85 1.99 1.95 1.89 1.88 1.45 1.41 1.55 1.45 1.47 1.00 0.70 1.05 1.57 1.74
1.14 1.65 1.27 1.21 0.85 0.95 0.97 1.01 0.97 1.05 1.29 1.92 2.41 2.59 2.41 2.18 2.09 2.22 2.38 2.40 2.04 1.84 1.67 1.61 1.53 1.64 1.52 1.35 1.02 0.94 1.13 2.06
1.32 1.42 1.03 1.22 1.05 1.22 1.60 1.00 0.72 0.81 0.98 1.30 1.77 2.11 2.10 1.91 2.05 2.10 2.97 3.09 2.45 2.32 2.07 1.94 1.75 1.57 1.58 1.44 1.07 1.07 0.96 1.63
0.89 0.98 1.03 1.51 1.91 2.01 1.59 1.03 0.73 0.91 0.83 0.89 1.18 1.85 1.88 1.77 1.91 2.00 2.04 2.59 2.47 2.36 2.14 1.93 1.98 1.84 1.58 1.71 1.56 1.10 1.07 1.25
0.76 0.84 1.34 2.10 2.03 1.40 1.26 1.24 1.17 1.18 0.85 0.88 1.10 1.75 1.59 2.08 2.37 2.20 2.72 2.38 2.20 2.27 2.12 1.89 1.59 1.62 1.75 1.69 1.64 1.42 1.30 1.34
0.71 0.86 0.81 0.98 1.07 1.18 1.20 1.11 1.20 1.05 0.80 0.87 1.10 1.66 1.81 1.71 2.14 2.28 2.50 2.67 2.60 2.07 2.15 2.49 1.88 1.49 2.14 2.63 1.95 1.87 1.71 1.66
0.42 0.34 0.23 0.33 0.54 0.68 0.75 0.75 0.70 0.89 1.08 0.99 1.44 1.63 1.86 1.79 2.07 2.47 2.22 2.73 2.92 2.73 2.12 2.17 2.24 2.15 2.20 2.29 2.43 2.53 2.09 2.33
0.09 0.16 0.14 0.26 0.39 0.80 1.41 1.81 1.88 2.07 1.56 1.41 1.64 1.57 1.81 1.93 2.13 2.28 2.66 2.89 3.09 3.37 2.77 2.22 2.35 2.26 2.18 2.91 2.67 2.41 2.03 2.08
0.13 0.13 0.22 0.33 0.62 0.88 1.23 1.19 1.19 1.12 1.39 1.61 1.81 2.09 2.11 2.22 2.32 3.13 2.94 3.44 3.44 3.16 3.67 2.90 2.43 2.23 2.45 2.55 2.64 2.34 2.22 2.03
0.10 0.15 0.34 0.50 0.79 0.74 1.16 1.57 1.56 1.36 1.54 2.04 2.69 2.24 2.38 2.84 2.79 2.74 3.15 3.54 4.08 3.98 3.86 4.26 3.36 2.47 2.00 2.40 2.46 2.37 2.32 2.48
0.12 0.18 0.23 0.50 0.71 1.30 1.93 1.90 1.86 1.97 1.83 1.69 2.16 2.92 2.55 2.85 3.13 2.67 2.54 2.67 3.39 3.76 4.55 4.68 4.75 3.91 2.82 2.27 2.50 2.85 2.85 2.70
0.21 0.16 0.21 0.29 0.55 1.08 1.53 2.22 2.75 2.42 2.02 2.07 2.11 3.00 3.55 3.00 2.77 3.22 3.15 2.84 2.91 3.52 3.74 4.26 4.77 5.08 4.63 3.59 3.11 2.69 2.62 2.70
0.47 0.31 0.40 0.43 0.63 1.06 1.41 1.87 2.32 3.25 3.43 3.31 3.23 2.92 3.64 4.86 5.04 3.51 3.14 3.75 3.65 3.55 3.90 3.95 4.10 4.55 4.76 4.89 4.21 3.52 2.83 3.21

GFSFLT2_prec_precacc_348.txt.gz
Total_Precipitation_Accumulation
6.15 3.91 3.41 3.65 2.55 2.45 3.42 3.42 2.90 1.95 1.53 1.33 1.52 1.22 1.09 1.00 0.80 0.78 0.84 0.89 0.94 0.94 0.98 0.99 0.85 0.78 0.66 0.56 0.58 0.89 1.31 1.46
7.16 5.24 3.29 1.83 2.56 2.48 2.47 3.32 3.85 2.53 2.01 1.86 1.55 1.48 1.33 0.98 0.78 0.81 1.05 1.01 0.78 0.71 0.73 0.79 0.76 0.67 0.66 0.64 0.67 1.09 1.43 1.84
6.73 6.46 4.08 2.83 2.64 2.64 2.23 2.07 3.02 3.85 2.60 2.19 1.90 1.20 1.29 1.05 1.08 1.13 1.19 1.10 1.08 1.05 0.93 0.91 0.85 0.78 0.85 1.11 1.01 0.74 1.12 1.64
3.03 3.35 3.10 2.47 3.23 3.29 2.23 2.08 1.62 2.88 3.11 2.43 1.85 1.21 1.22 1.20 1.06 1.18 1.30 1.17 1.25 1.22 1.24 1.30 1.32 1.08 1.05 1.06 0.94 1.15 1.37 1.79
1.31 1.59 1.54 1.63 2.15 1.83 1.88 1.86 1.72 1.88 2.85 2.29 1.64 1.24 1.16 1.49 1.02 1.13 1.55 1.64 1.30 1.11 0.97 1.08 1.22 1.49 1.29 1.14 0.98 0.98 1.09 1.82
1.09 0.93 1.16 1.36 1.62 1.59 1.28 1.43 1.67 1.68 2.40 2.25 1.60 1.31 1.01 1.22 1.02 1.09 1.78 1.81 1.43 1.11 0.82 0.92 1.17 1.36 1.15 1.16 1.07 1.10 1.12 1.56
1.04 0.89 0.95 1.04 0.96 1.02 0.95 0.92 1.27 1.62 1.82 2.16 1.99 1.38 0.92 1.05 1.11 1.32 1.67 1.79 2.01 1.51 1.15 1.16 1.22 1.39 1.23 0.94 0.85 1.23 1.40 1.45
1.04 1.31 0.99 1.13 0.89 0.86 0.87 0.82 1.11 1.52 1.73 2.02 2.49 1.95 1.67 1.53 1.63 1.85 1.99 1.95 1.89 1.88 1.45 1.41 1.55 1.45 1.47 1.00 0.70 1.05 1.57 1.74
1.14 1.65 1.27 1.21 0.85 0.95 0.97 1.01 0.97 1.05 1.29 1.92 2.41 2.59 2.41 2.18 2.09 2.22 2.38 2.40 2.04 1.84 1.67 1.61 1.53 1.64 1.52 1.35 1.02 0.94 1.13 2.06
1.32 1.42 1.03 1.22 1.05 1.22 1.60 1.00 0.72 0.81 0.98 1.30 1.77 2.11 2.10 1.91 2.05 2.10 2.97 3.09 2.45 2.32 2.07 1.94 1.75 1.57 1.58 1.44 1.07 1.07 0.96 1.63
0.89 0.98 1.03 1.51 1.91 2.01 1.59 1.03 0.73 0.91 0.83 0.89 1.18 1.85 1.88 1.77 1.91 2.00 2.04 2.59 2.47 2.36 2.14 1.93 1.98 1.84 1.58 1.71 1.56 1.10 1.07 1.25
0.76 0.84 1.34 2.10 2.03 1.40 1.26 1.24 1.17 1.18 0.85 0.88 1.10 1.75 1.59 2.08 2.37 2.20 2.72 2.38 2.20 2.27 2.12 1.89 1.59 1.62 1.75 1.69 1.64 1.42 1.30 1.34
0.71 0.86 0.81 0.98 1.07 1.18 1.20 1.11 1.20 1.05 0.80 0.87 1.10 1.66 1.81 1.71 2.16 2.29 2.50 2.67 2.60 2.07 2.15 2.49 1.88 1.49 2.14 2.63 1.95 1.87 1.71 1.66
0.42 0.35 0.23 0.33 0.55 0.68 0.75 0.75 0.70 0.89 1.08 0.99 1.44 1.63 1.87 1.79 2.08 2.48 2.22 2.73 2.92 2.73 2.12 2.17 2.24 2.15 2.20 2.29 2.43 2.53 2.09 2.33
0.09 0.16 0.14 0.26 0.39 0.80 1.41 1.81 1.88 2.07 1.56 1.41 1.64 1.57 1.81 1.93 2.13 2.28 2.66 2.89 3.09 3.37 2.77 2.22 2.35 2.26 2.18 2.91 2.67 2.41 2.03 2.08
0.13 0.13 0.22 0.33 0.62 0.88 1.23 1.19 1.19 1.12 1.39 1.61 1.81 2.09 2.11 2.22 2.32 3.13 2.94 3.44 3.44 3.16 3.67 2.90 2.43 2.23 2.45 2.55 2.64 2.34 2.22 2.03
0.10 0.15 0.34 0.50 0.79 0.74 1.16 1.57 1.56 1.36 1.54 2.04 2.69 2.24 2.38 2.84 2.79 2.74 3.15 3.54 4.08 3.98 3.86 4.26 3.36 2.47 2.00 2.40 2.46 2.37 2.32 2.48
0.12 0.18 0.23 0.50 0.71 1.30 1.93 1.90 1.86 1.97 1.83 1.69 2.16 2.92 2.55 2.85 3.13 2.67 2.54 2.67 3.39 3.76 4.55 4.68 4.75 3.91 2.82 2.27 2.50 2.85 2.85 2.70
0.21 0.16 0.21 0.29 0.55 1.08 1.53 2.22 2.75 2.42 2.02 2.07 2.11 3.00 3.55 3.00 2.77 3.22 3.15 2.84 2.91 3.52 3.74 4.26 4.77 5.08 4.63 3.59 3.11 2.69 2.62 2.70
0.47 0.31 0.40 0.43 0.63 1.06 1.41 1.87 2.32 3.25 3.43 3.31 3.23 2.92 3.64 4.86 5.04 3.51 3.14 3.75 3.65 3.55 3.90 3.95 4.10 4.55 4.76 4.89 4.21 3.52 2.83 3.21

GFSFLT2_prec_precacc_351.txt.gz
Total_Precipitation_Accumulation
6.15 3.92 3.41 3.65 2.55 2.45 3.42 3.42 2.90 1.95 1.53 1.33 1.52 1.22 1.09 1.00 0.80 0.78 0.84 0.89 0.94 0.94 0.98 0.99 0.85 0.78 0.66 0.56 0.58 0.89 1.31 1.46
7.16 5.24 3.29 1.83 2.56 2.48 2.47 3.32 3.85 2.53 2.01 1.86 1.55 1.48 1.33 0.98 0.78 0.81 1.05 1.01 0.78 0.71 0.73 0.79 0.76 0.67 0.66 0.64 0.67 1.09 1.43 1.84
6.73 6.46 4.08 2.83 2.64 2.64 2.23 2.07 3.02 3.85 2.60 2.19 1.90 1.20 1.29 1.05 1.08 1.13 1.19 1.10 1.08 1.05 0.93 0.91 0.85 0.78 0.85 1.11 1.01 0.74 1.12 1.64
3.03 3.35 3.10 2.47 3.23 3.29 2.23 2.08 1.62 2.88 3.11 2.43 1.85 1.21 1.22 1.20 1.06 1.18 1.30 1.17 1.25 1.22 1.24 1.30 1.32 1.08 1.05 1.06 0.94 1.15 1.37 1.79
1.31 1.59 1.54 1.63 2.15 1.83 1.88 1.86 1.72 1.88 2.85 2.29 1.64 1.24 1.16 1.49 1.02 1.13 1.55 1.64 1.30 1.11 0.97 1.08 1.22 1.49 1.29 1.14 0.98 0.98 1.09 1.82
1.09 0.93 1.16 1.36 1.62 1.59 1.28 1.43 1.67 1.68 2.40 2.25 1.60 1.31 1.01 1.22 1.02 1.09 1.78 1.81 1.43 1.11 0.82 0.92 1.17 1.36 1.15 1.16 1.07 1.10 1.12 1.56
1.04 0.89 0.95 1.04 0.96 1.02 0.95 0.92 1.27 1.62 1.82 2.16 1.99 1.38 0.92 1.05 1.11 1.32 1.67 1.79 2.01 1.51 1.15 1.16 1.22 1.39 1.23 0.94 0.85 1.23 1.40 1.45
1.05 1.31 0.99 1.13 0.89 0.86 0.87 0.82 1.11 1.52 1.73 2.02 2.49 1.95 1.67 1.53 1.63 1.85 1.99 1.95 1.89 1.88 1.45 1.41 1.55 1.45 1.47 1.00 0.70 1.05 1.57 1.74
1.14 1.65 1.27 1.21 0.85 0.95 0.97 1.01 0.97 1.05 1.29 1.92 2.41 2.59 2.41 2.18 2.09 2.22 2.38 2.40 2.04 1.84 1.67 1.61 1.53 1.64 1.52 1.35 1.02 0.94 1.13 2.06
1.32 1.42 1.03 1.22 1.05 1.22 1.60 1.00 0.72 0.81 0.98 1.30 1.77 2.11 2.10 1.91 2.05 2.10 2.97 3.09 2.45 2.32 2.07 1.94 1.75 1.57 1.58 1.44 1.07 1.07 0.96 1.63
0.89 0.98 1.03 1.51 1.91 2.01 1.59 1.03 0.73 0.91 0.83 0.89 1.18 1.85 1.88 1.77 1.91 2.00 2.04 2.59 2.47 2.36 2.14 1.93 1.98 1.84 1.58 1.71 1.56 1.10 1.07 1.25
0.76 0.84 1.35 2.10 2.03 1.40 1.26 1.24 1.17 1.18 0.85 0.88 1.10 1.75 1.59 2.08 2.37 2.20 2.72 2.38 2.20 2.27 2.12 1.89 1.59 1.62 1.75 1.69 1.64 1.42 1.30 1.34
0.75 0.90 0.81 0.98 1.07 1.18 1.20 1.11 1.20 1.05 0.80 0.88 1.10 1.67 1.83 1.72 2.17 2.31 2.53 2.69 2.61 2.08 2.15 2.49 1.88 1.49 2.14 2.63 1.95 1.87 1.71 1.66
0.43 0.35 0.23 0.33 0.55 0.68 0.75 0.75 0.70 0.89 1.08 0.99 1.44 1.63 1.87 1.79 2.09 2.50 2.25 2.77 2.94 2.74 2.13 2.17 2.24 2.15 2.20 2.29 2.43 2.53 2.09 2.33
0.09 0.16 0.14 0.26 0.39 0.80 1.41 1.81 1.88 2.07 1.56 1.41 1.64 1.57 1.81 1.93 2.13 2.28 2.66 2.89 3.09 3.37 2.77 2.22 2.35 2.26 2.18 2.91 2.67 2.41 2.03 2.08
0.13 0.13 0.22 0.33 0.62 0.88 1.23 1.19 1.19 1.12 1.39 1.61 1.81 2.09 2.11 2.22 2.32 3.13 2.94 3.44 3.44 3.16 3.67 2.90 2.43 2.23 2.45 2.55 2.64 2.34 2.22 2.03
0.10 0.15 0.34 0.50 0.79 0.74 1.16 1.57 1.56 1.36 1.54 2.04 2.69 2.24 2.38 2.84 2.79 2.74 3.15 3.54 4.08 3.98 3.86 4.26 3.36 2.47 2.00 2.40 2.46 2.37 2.32 2.48
0.12 0.18 0.23 0.50 0.71 1.30 1.93 1.90 1.86 1.97 1.83 1.69 2.16 2.92 2.55 2.85 3.13 2.67 2.54 2.67 3.39 3.76 4.55 4.68 4.75 3.91 2.82 2.27 2.50 2.85 2.85 2.70
0.21 0.16 0.21 0.29 0.55 1.08 1.53 2.22 2.75 2.42 2.02 2.07 2.11 3.00 3.55 3.00 2.77 3.22 3.15 2.84 2.91 3.52 3.74 4.26 4.77 5.08 4.63 3.59 3.11 2.69 2.62 2.70
0.47 0.31 0.40 0.43 0.63 1.06 1.41 1.87 2.32 3.25 3.43 3.31 3.23 2.92 3.64 4.86 5.04 3.51 3.14 3.75 3.65 3.55 3.90 3.95 4.10 4.55 4.76 4.89 4.21 3.52 2.83 3.21